Location: Rounton
(54.4000°N, 1.3500°W)
Time: 14:50:28
(UTC+00:00)

Transit 4A - Pass Details

Date: 06 December 2021
Orbit: 864 x 981 km, 66.8° (Epoch: 20 January)

Event Time Altitude Azimuth Distance (km) Brightness Sun altitude
Rises 22:13:25 0° 276° (W) 3,517 - -52.8°
Reaches altitude 10° 22:16:16 10° 288° (WNW) 2,596 - -53.0°
Maximum altitude 22:21:25 28° 347° (NNW) 1,663 - -53.5°
Drops below altitude 10° 22:26:43 10° 45° (NE) 2,671 - -54.0°
Sets 22:29:42 0° 57° (ENE) 3,636 - -54.3°
